Torna al catalogo

VANGUARD 2

AttivoMeteoUNKNOWN
NORAD 11·PAYLOAD·🇺🇸 United States

Lanciato Feb 17, 1959 da Cape Canaveral Space Force Station

Loading…

Prossimi Passaggi (prossime 24 ore)

TLE

AggiornatoSource: Space-Track

Epoca: Sep 14, 2026, 15:16 UTC

1 00011U 59001A   26257.63637812  .00000483  00000-0  23567-3 0  9996
2 00011  32.8704 106.5030 1445242 206.0950 145.9200 11.90662749546132

Traccia VANGUARD 2 in tempo reale con AllMySat

Download on the App Store